Time,TemperatureF,DewpointF,PressureIn,WindDirection,WindDirectionDegrees,WindSpeedMPH,WindSpeedGustMPH,Humidity,HourlyPrecipIn,Conditions,Clouds,dailyrainin,SoftwareType,DateUTC
2013-05-13 00:02:00,55.0,43.5,28.14,North,0,0.0,0.0,65,0.00,,---,0.00,VWS V14.01,2013-05-13 07:02:00,
2013-05-13 00:07:00,55.0,43.1,28.14,North,0,0.0,0.0,64,0.00,,---,0.00,VWS V14.01,2013-05-13 07:07:00,
2013-05-13 00:12:00,54.5,43.0,28.14,North,0,0.0,0.0,65,0.00,,---,0.00,VWS V14.01,2013-05-13 07:12:00,
2013-05-13 00:17:00,54.3,42.4,28.14,North,0,0.0,0.0,64,0.00,,---,0.00,VWS V14.01,2013-05-13 07:17:00,
2013-05-13 00:22:00,54.3,42.8,28.14,NNW,338,0.0,0.0,65,0.00,,---,0.00,VWS V14.01,2013-05-13 07:22:00,
2013-05-13 00:27:00,54.0,42.9,28.14,ENE,68,0.0,0.0,66,0.00,,---,0.00,VWS V14.01,2013-05-13 07:27:00,
2013-05-13 00:32:00,53.8,42.7,28.14,WSW,248,0.0,0.0,66,0.00,,---,0.00,VWS V14.01,2013-05-13 07:32:00,
2013-05-13 00:37:00,53.6,42.9,28.14,West,270,0.0,0.0,67,0.00,,---,0.00,VWS V14.01,2013-05-13 07:37:00,
2013-05-13 00:42:00,53.2,42.6,28.14,West,270,0.0,0.0,67,0.00,,---,0.00,VWS V14.01,2013-05-13 07:42:00,
2013-05-13 00:47:00,53.1,43.5,28.14,NNE,22,0.0,0.0,70,0.00,,---,0.00,VWS V14.01,2013-05-13 07:47:00,
2013-05-13 00:53:00,53.1,43.5,28.14,WSW,248,0.0,0.0,70,0.00,,---,0.00,VWS V14.01,2013-05-13 07:53:00,
2013-05-13 00:58:00,52.9,43.8,28.14,NNW,338,0.0,0.0,71,0.00,,---,0.00,VWS V14.01,2013-05-13 07:58:00,
2013-05-13 01:03:00,52.7,43.2,28.14,WSW,248,0.0,0.0,70,0.00,,---,0.00,VWS V14.01,2013-05-13 08:03:00,
2013-05-13 01:08:00,52.3,42.9,28.14,NNW,338,0.0,0.0,70,0.00,,---,0.00,VWS V14.01,2013-05-13 08:08:00,
2013-05-13 01:13:00,52.2,43.1,28.14,WNW,292,0.0,0.0,71,0.00,,---,0.00,VWS V14.01,2013-05-13 08:13:00,
2013-05-13 01:18:00,52.0,42.9,28.14,WSW,248,0.0,0.0,71,0.00,,---,0.00,VWS V14.01,2013-05-13 08:18:00,
2013-05-13 01:23:00,52.0,42.9,28.14,West,270,0.0,0.0,71,0.00,,---,0.00,VWS V14.01,2013-05-13 08:23:00,
2013-05-13 01:28:00,51.6,42.9,28.14,West,270,0.0,0.0,72,0.00,,---,0.00,VWS V14.01,2013-05-13 08:28:00,
2013-05-13 01:33:00,51.6,42.9,28.14,WNW,292,0.0,0.0,72,0.00,,---,0.00,VWS V14.01,2013-05-13 08:33:00,
2013-05-13 01:38:00,51.4,42.7,28.14,WNW,292,0.0,0.0,72,0.00,,---,0.00,VWS V14.01,2013-05-13 08:38:00,
2013-05-13 01:43:00,51.4,43.4,28.14,WSW,248,0.0,0.0,74,0.00,,---,0.00,VWS V14.01,2013-05-13 08:43:00,
2013-05-13 01:48:00,51.4,42.7,28.14,WSW,248,0.0,0.0,72,0.00,,---,0.00,VWS V14.01,2013-05-13 08:48:00,
2013-05-13 01:53:00,51.6,43.6,28.14,NNE,22,0.0,1.3,74,0.00,,---,0.00,VWS V14.01,2013-05-13 08:53:00,
2013-05-13 01:58:00,51.6,44.0,28.14,West,270,2.0,2.0,75,0.00,,---,0.00,VWS V14.01,2013-05-13 08:58:00,
2013-05-13 02:03:00,52.2,44.1,28.14,ENE,68,0.0,0.0,74,0.00,,---,0.00,VWS V14.01,2013-05-13 09:03:00,
2013-05-13 02:08:00,52.2,44.1,28.14,NE,45,0.0,0.0,74,0.00,,---,0.00,VWS V14.01,2013-05-13 09:08:00,
2013-05-13 02:13:00,52.2,43.8,28.14,NE,45,0.0,0.0,73,0.00,,---,0.00,VWS V14.01,2013-05-13 09:13:00,
2013-05-13 02:18:00,52.2,43.8,28.14,NE,45,0.0,0.0,73,0.00,,---,0.00,VWS V14.01,2013-05-13 09:18:00,
2013-05-13 02:23:00,52.2,43.8,28.14,NE,45,0.0,0.0,73,0.00,,---,0.00,VWS V14.01,2013-05-13 09:23:00,
2013-05-13 02:28:00,52.2,43.8,28.14,NE,45,0.0,1.1,73,0.00,,---,0.00,VWS V14.01,2013-05-13 09:28:00,
2013-05-13 02:33:00,52.3,44.0,28.14,WNW,292,0.0,0.0,73,0.00,,---,0.00,VWS V14.01,2013-05-13 09:33:00,
2013-05-13 02:38:00,52.3,44.3,28.14,WNW,292,0.0,0.0,74,0.00,,---,0.00,VWS V14.01,2013-05-13 09:38:00,
2013-05-13 02:43:00,52.2,43.8,28.14,WNW,292,0.0,0.0,73,0.00,,---,0.00,VWS V14.01,2013-05-13 09:43:00,
2013-05-13 02:48:00,51.8,43.4,28.14,ENE,68,0.0,0.0,73,0.00,,---,0.00,VWS V14.01,2013-05-13 09:48:00,
2013-05-13 02:53:00,51.4,43.4,28.14,ENE,68,0.0,0.0,74,0.00,,---,0.00,VWS V14.01,2013-05-13 09:53:00,
2013-05-13 02:58:00,51.1,43.1,28.14,WSW,248,0.0,0.0,74,0.00,,---,0.00,VWS V14.01,2013-05-13 09:58:00,
2013-05-13 03:03:00,51.1,43.1,28.14,WNW,292,0.0,0.0,74,0.00,,---,0.00,VWS V14.01,2013-05-13 10:03:00,
2013-05-13 03:08:00,50.7,42.8,28.14,WNW,292,0.0,0.0,74,0.00,,---,0.00,VWS V14.01,2013-05-13 10:08:00,
2013-05-13 03:13:00,50.7,42.8,28.14,WNW,292,0.0,0.0,74,0.00,,---,0.00,VWS V14.01,2013-05-13 10:13:00,
2013-05-13 03:18:00,50.0,42.4,28.14,West,270,0.0,0.0,75,0.00,,---,0.00,VWS V14.01,2013-05-13 10:18:00,
2013-05-13 03:23:00,50.2,42.9,28.14,SW,225,0.0,0.9,76,0.00,,---,0.00,VWS V14.01,2013-05-13 10:23:00,
2013-05-13 03:28:00,50.2,42.9,28.14,South,180,0.0,0.0,76,0.00,,---,0.00,VWS V14.01,2013-05-13 10:28:00,
2013-05-13 03:33:00,49.5,42.2,28.14,West,270,0.0,0.0,76,0.00,,---,0.00,VWS V14.01,2013-05-13 10:33:00,
2013-05-13 03:38:00,49.3,42.7,28.14,WNW,292,0.0,0.0,78,0.00,,---,0.00,VWS V14.01,2013-05-13 10:38:00,
2013-05-13 03:43:00,49.3,42.7,28.17,South,180,0.0,0.0,78,0.00,,---,0.00,VWS V14.01,2013-05-13 10:43:00,
2013-05-13 03:48:00,49.1,42.5,28.17,WSW,248,2.0,2.2,78,0.00,,---,0.00,VWS V14.01,2013-05-13 10:48:00,
2013-05-13 03:53:00,48.9,42.7,28.17,WSW,248,0.0,0.0,79,0.00,,---,0.00,VWS V14.01,2013-05-13 10:53:00,
2013-05-13 03:58:00,48.9,43.0,28.14,NNE,22,0.0,0.0,80,0.00,,---,0.00,VWS V14.01,2013-05-13 10:58:00,
2013-05-13 04:03:00,48.7,42.9,28.14,NNE,22,0.0,0.0,80,0.00,,---,0.00,VWS V14.01,2013-05-13 11:03:00,
2013-05-13 04:08:00,48.6,42.3,28.14,NW,315,0.0,0.0,79,0.00,,---,0.00,VWS V14.01,2013-05-13 11:08:00,
2013-05-13 04:13:00,48.9,43.7,28.14,NNE,22,0.0,0.0,82,0.00,,---,0.00,VWS V14.01,2013-05-13 11:13:00,
2013-05-13 04:18:00,48.9,43.3,28.14,ENE,68,0.0,0.0,81,0.00,,---,0.00,VWS V14.01,2013-05-13 11:18:00,
2013-05-13 04:23:00,48.9,43.7,28.14,NNE,22,0.0,0.0,82,0.00,,---,0.00,VWS V14.01,2013-05-13 11:23:00,
2013-05-13 04:28:00,48.9,43.3,28.14,WNW,292,0.0,0.0,81,0.00,,---,0.00,VWS V14.01,2013-05-13 11:28:00,
2013-05-13 04:33:00,48.7,43.5,28.14,NE,45,0.0,0.0,82,0.00,,---,0.00,VWS V14.01,2013-05-13 11:33:00,
2013-05-13 04:38:00,48.6,43.3,28.14,NE,45,0.0,0.0,82,0.00,,---,0.00,VWS V14.01,2013-05-13 11:38:00,
2013-05-13 04:43:00,48.2,42.7,28.17,ENE,68,0.0,0.0,81,0.00,,---,0.00,VWS V14.01,2013-05-13 11:43:00,
2013-05-13 04:48:00,48.0,42.8,28.17,NNW,338,0.0,0.0,82,0.00,,---,0.00,VWS V14.01,2013-05-13 11:48:00,
2013-05-13 04:53:00,48.0,43.1,28.17,WSW,248,0.0,0.0,83,0.00,,---,0.00,VWS V14.01,2013-05-13 11:53:00,
2013-05-13 04:58:00,47.8,42.9,28.14,WNW,292,0.0,0.0,83,0.00,,---,0.00,VWS V14.01,2013-05-13 11:58:00,
2013-05-13 05:03:00,47.8,43.2,28.14,West,270,2.2,2.2,84,0.00,,---,0.00,VWS V14.01,2013-05-13 12:03:00,
2013-05-13 05:08:00,47.8,43.2,28.14,West,270,0.0,0.0,84,0.00,,---,0.00,VWS V14.01,2013-05-13 12:08:00,
2013-05-13 05:13:00,47.8,43.2,28.14,NE,45,0.0,0.0,84,0.00,,---,0.00,VWS V14.01,2013-05-13 12:13:00,
2013-05-13 05:18:00,47.7,43.1,28.14,NE,45,0.0,0.0,84,0.00,,---,0.00,VWS V14.01,2013-05-13 12:18:00,
2013-05-13 05:23:00,47.5,42.9,28.14,NE,45,0.0,0.0,84,0.00,,---,0.00,VWS V14.01,2013-05-13 12:23:00,
2013-05-13 05:28:00,47.5,42.9,28.14,NE,45,0.0,0.0,84,0.00,,---,0.00,VWS V14.01,2013-05-13 12:28:00,
2013-05-13 05:33:00,47.3,42.7,28.14,NE,45,0.0,0.0,84,0.00,,---,0.00,VWS V14.01,2013-05-13 12:33:00,
2013-05-13 05:38:00,47.5,42.9,28.14,NE,45,0.0,0.0,84,0.00,,---,0.00,VWS V14.01,2013-05-13 12:38:00,
2013-05-13 05:43:00,47.5,42.9,28.14,NE,45,0.0,0.0,84,0.00,,---,0.00,VWS V14.01,2013-05-13 12:43:00,
2013-05-13 05:48:00,47.5,42.9,28.14,NE,45,0.0,0.0,84,0.00,,---,0.00,VWS V14.01,2013-05-13 12:48:00,
2013-05-13 05:54:00,47.8,43.6,28.14,North,0,0.0,0.0,85,0.00,,---,0.00,VWS V14.01,2013-05-13 12:54:00,
2013-05-13 05:59:00,47.8,43.6,28.14,North,0,0.0,0.0,85,0.00,,---,0.00,VWS V14.01,2013-05-13 12:59:00,
2013-05-13 06:04:00,48.2,43.6,28.14,North,0,0.0,0.0,84,0.00,,---,0.00,VWS V14.01,2013-05-13 13:04:00,
2013-05-13 06:09:00,48.4,43.8,28.14,North,0,0.0,0.0,84,0.00,,---,0.00,VWS V14.01,2013-05-13 13:09:00,
2013-05-13 06:14:00,48.6,44.0,28.14,North,0,0.0,0.0,84,0.00,,---,0.00,VWS V14.01,2013-05-13 13:14:00,
2013-05-13 06:19:00,48.7,44.1,28.14,East,90,2.0,2.0,84,0.00,,---,0.00,VWS V14.01,2013-05-13 13:19:00,
2013-05-13 06:24:00,48.7,44.1,28.14,East,90,0.0,0.0,84,0.00,,---,0.00,VWS V14.01,2013-05-13 13:24:00,
2013-05-13 06:29:00,49.1,44.5,28.17,SW,225,0.0,0.9,84,0.00,,---,0.00,VWS V14.01,2013-05-13 13:29:00,
2013-05-13 06:34:00,49.6,45.3,28.17,ENE,68,0.0,0.0,85,0.00,,---,0.00,VWS V14.01,2013-05-13 13:34:00,
2013-05-13 06:39:00,49.8,45.2,28.17,NW,315,0.0,0.0,84,0.00,,---,0.00,VWS V14.01,2013-05-13 13:39:00,
2013-05-13 06:44:00,50.2,45.5,28.17,NW,315,0.0,0.0,84,0.00,,---,0.00,VWS V14.01,2013-05-13 13:44:00,
2013-05-13 06:49:00,50.4,45.7,28.17,NW,315,0.0,0.0,84,0.00,,---,0.00,VWS V14.01,2013-05-13 13:49:00,
2013-05-13 06:54:00,50.9,45.9,28.17,NW,315,0.0,0.0,83,0.00,,---,0.00,VWS V14.01,2013-05-13 13:54:00,
2013-05-13 06:59:00,51.3,46.6,28.17,NE,45,0.0,0.0,84,0.00,,---,0.00,VWS V14.01,2013-05-13 13:59:00,
2013-05-13 07:04:00,51.4,46.5,28.17,NW,315,0.0,0.0,83,0.00,,---,0.00,VWS V14.01,2013-05-13 14:04:00,
2013-05-13 07:09:00,51.6,46.3,28.17,NW,315,0.0,0.0,82,0.00,,---,0.00,VWS V14.01,2013-05-13 14:09:00,
2013-05-13 07:14:00,52.0,46.3,28.17,NW,315,0.0,0.0,81,0.00,,---,0.00,VWS V14.01,2013-05-13 14:14:00,
2013-05-13 07:19:00,52.5,46.9,28.17,NW,315,0.0,0.0,81,0.00,,---,0.00,VWS V14.01,2013-05-13 14:19:00,
2013-05-13 07:24:00,53.1,47.4,28.17,NW,315,0.0,0.0,81,0.00,,---,0.00,VWS V14.01,2013-05-13 14:24:00,
2013-05-13 07:29:00,54.1,47.8,28.14,NW,315,0.0,0.0,79,0.00,,---,0.00,VWS V14.01,2013-05-13 14:29:00,
2013-05-13 07:34:00,54.7,48.0,28.14,NE,45,0.9,0.9,78,0.00,,---,0.00,VWS V14.01,2013-05-13 14:34:00,
2013-05-13 07:39:00,54.9,48.1,28.14,NE,45,0.0,0.0,78,0.00,,---,0.00,VWS V14.01,2013-05-13 14:39:00,
2013-05-13 07:44:00,55.4,48.3,28.14,NE,45,0.0,0.0,77,0.00,,---,0.00,VWS V14.01,2013-05-13 14:44:00,
2013-05-13 07:49:00,55.9,48.1,28.14,NE,45,0.0,0.0,75,0.00,,---,0.00,VWS V14.01,2013-05-13 14:49:00,
2013-05-13 07:54:00,56.3,48.1,28.14,ENE,68,0.0,0.0,74,0.00,,---,0.00,VWS V14.01,2013-05-13 14:54:00,
2013-05-13 07:59:00,56.5,48.3,28.14,NNE,22,0.0,0.0,74,0.00,,---,0.00,VWS V14.01,2013-05-13 14:59:00,
2013-05-13 08:04:00,56.8,48.3,28.14,SE,135,0.0,0.0,73,0.00,,---,0.00,VWS V14.01,2013-05-13 15:04:00,
2013-05-13 08:09:00,57.2,48.3,28.14,ESE,112,0.0,0.0,72,0.00,,---,0.00,VWS V14.01,2013-05-13 15:09:00,
2013-05-13 08:14:00,57.7,48.8,28.14,SSE,158,0.0,0.0,72,0.00,,---,0.00,VWS V14.01,2013-05-13 15:14:00,
2013-05-13 08:19:00,58.1,48.4,28.14,ENE,68,1.3,2.7,70,0.00,,---,0.00,VWS V14.01,2013-05-13 15:19:00,
2013-05-13 08:24:00,58.6,48.9,28.14,ENE,68,0.0,0.0,70,0.00,,---,0.00,VWS V14.01,2013-05-13 15:24:00,
2013-05-13 08:29:00,59.2,49.0,28.14,ENE,68,0.0,0.0,69,0.00,,---,0.00,VWS V14.01,2013-05-13 15:29:00,
2013-05-13 08:34:00,59.4,48.8,28.14,ENE,68,0.0,0.0,68,0.00,,---,0.00,VWS V14.01,2013-05-13 15:34:00,
2013-05-13 08:39:00,59.5,48.2,28.14,ENE,68,0.0,0.0,66,0.00,,---,0.00,VWS V14.01,2013-05-13 15:39:00,
2013-05-13 08:45:00,59.4,48.0,28.14,ESE,112,2.5,2.5,66,0.00,,---,0.00,VWS V14.01,2013-05-13 15:45:00,
2013-05-13 08:50:00,59.4,48.0,28.14,SSW,202,0.0,0.0,66,0.00,,---,0.00,VWS V14.01,2013-05-13 15:50:00,
2013-05-13 08:55:00,59.4,47.6,28.14,SW,225,0.0,0.0,65,0.00,,---,0.00,VWS V14.01,2013-05-13 15:55:00,
2013-05-13 09:00:00,59.0,46.8,28.14,East,90,2.0,2.0,64,0.00,,---,0.00,VWS V14.01,2013-05-13 16:00:00,
2013-05-13 09:05:00,59.2,47.4,28.14,ESE,112,0.0,0.0,65,0.00,,---,0.00,VWS V14.01,2013-05-13 16:05:00,
2013-05-13 09:10:00,59.4,48.0,28.14,WSW,248,0.0,0.0,66,0.00,,---,0.00,VWS V14.01,2013-05-13 16:10:00,
2013-05-13 09:15:00,60.1,48.3,28.14,West,270,0.0,2.2,65,0.00,,---,0.00,VWS V14.01,2013-05-13 16:15:00,
2013-05-13 09:20:00,60.8,47.3,28.14,ENE,68,0.0,0.0,61,0.00,,---,0.00,VWS V14.01,2013-05-13 16:20:00,
2013-05-13 09:25:00,61.5,46.2,28.14,SE,135,0.0,0.9,57,0.00,,---,0.00,VWS V14.01,2013-05-13 16:25:00,
2013-05-13 09:30:00,62.6,45.2,28.14,ENE,68,0.0,0.0,53,0.00,,---,0.00,VWS V14.01,2013-05-13 16:30:00,
2013-05-13 09:35:00,62.8,40.6,28.14,NNE,22,4.3,6.5,44,0.00,,---,0.00,VWS V14.01,2013-05-13 16:35:00,
2013-05-13 09:40:00,62.8,41.2,28.14,WSW,248,0.0,1.6,45,0.00,,---,0.00,VWS V14.01,2013-05-13 16:40:00,
2013-05-13 09:45:00,62.6,39.8,28.14,NNE,22,1.1,3.8,43,0.00,,---,0.00,VWS V14.01,2013-05-13 16:45:00,
2013-05-13 09:50:00,62.6,41.0,28.14,NNE,22,1.3,1.3,45,0.00,,---,0.00,VWS V14.01,2013-05-13 16:50:00,
2013-05-13 09:55:00,62.4,42.5,28.14,West,270,0.0,0.0,48,0.00,,---,0.00,VWS V14.01,2013-05-13 16:55:00,
2013-05-13 10:00:00,62.4,43.5,28.14,West,270,0.0,0.0,50,0.00,,---,0.00,VWS V14.01,2013-05-13 17:00:00,
2013-05-13 10:05:00,62.4,44.1,28.14,West,270,0.0,0.0,51,0.00,,---,0.00,VWS V14.01,2013-05-13 17:05:00,
2013-05-13 10:10:00,62.6,44.2,28.14,West,270,0.0,0.0,51,0.00,,---,0.00,VWS V14.01,2013-05-13 17:10:00,
2013-05-13 10:15:00,62.4,44.6,28.14,ENE,68,0.0,2.0,52,0.00,,---,0.00,VWS V14.01,2013-05-13 17:15:00,
2013-05-13 10:20:00,62.4,45.1,28.14,ENE,68,0.0,0.0,53,0.00,,---,0.00,VWS V14.01,2013-05-13 17:20:00,
2013-05-13 10:25:00,63.0,43.0,28.14,NE,45,0.0,0.0,48,0.00,,---,0.00,VWS V14.01,2013-05-13 17:25:00,
2013-05-13 10:30:00,63.1,42.0,28.14,ESE,112,0.0,0.0,46,0.00,,---,0.00,VWS V14.01,2013-05-13 17:30:00,
2013-05-13 10:35:00,62.8,40.0,28.14,ENE,68,2.0,2.0,43,0.00,,---,0.00,VWS V14.01,2013-05-13 17:35:00,
2013-05-13 10:40:00,62.8,40.6,28.14,SSE,158,0.0,0.0,44,0.00,,---,0.00,VWS V14.01,2013-05-13 17:40:00,
2013-05-13 10:45:00,63.0,40.7,28.14,WNW,292,2.2,2.2,44,0.00,,---,0.00,VWS V14.01,2013-05-13 17:45:00,
2013-05-13 10:50:00,63.0,38.3,28.14,NNE,22,1.6,1.6,40,0.00,,---,0.00,VWS V14.01,2013-05-13 17:50:00,
2013-05-13 10:55:00,63.1,39.1,28.14,NE,45,0.9,0.9,41,0.00,,---,0.00,VWS V14.01,2013-05-13 17:55:00,
2013-05-13 11:00:00,63.3,38.6,28.14,NNW,338,2.0,2.0,40,0.00,,---,0.00,VWS V14.01,2013-05-13 18:00:00,
2013-05-13 11:05:00,63.5,38.8,28.14,SSE,158,0.0,0.0,40,0.00,,---,0.00,VWS V14.01,2013-05-13 18:05:00,
2013-05-13 11:10:00,63.7,38.9,28.14,NE,45,0.0,0.0,40,0.00,,---,0.00,VWS V14.01,2013-05-13 18:10:00,
2013-05-13 11:15:00,64.4,38.9,28.14,NNE,22,0.0,1.6,39,0.00,,---,0.00,VWS V14.01,2013-05-13 18:15:00,
2013-05-13 11:20:00,64.4,37.6,28.14,NE,45,0.0,0.0,37,0.00,,---,0.00,VWS V14.01,2013-05-13 18:20:00,
2013-05-13 11:25:00,64.8,38.6,28.14,North,0,0.0,0.9,38,0.00,,---,0.00,VWS V14.01,2013-05-13 18:25:00,
2013-05-13 11:30:00,65.3,39.1,28.14,West,270,0.0,0.0,38,0.00,,---,0.00,VWS V14.01,2013-05-13 18:30:00,
2013-05-13 11:35:00,64.9,38.1,28.14,ENE,68,0.0,0.0,37,0.00,,---,0.00,VWS V14.01,2013-05-13 18:35:00,
2013-05-13 11:40:00,65.1,38.2,28.14,West,270,0.0,0.0,37,0.00,,---,0.00,VWS V14.01,2013-05-13 18:40:00,
2013-05-13 11:45:00,64.9,38.8,28.14,NW,315,0.0,0.0,38,0.00,,---,0.00,VWS V14.01,2013-05-13 18:45:00,
2013-05-13 11:50:00,64.2,39.4,28.14,NNE,22,0.0,0.0,40,0.00,,---,0.00,VWS V14.01,2013-05-13 18:50:00,
2013-05-13 11:55:00,63.9,39.7,28.14,NNE,22,0.0,0.0,41,0.00,,---,0.00,VWS V14.01,2013-05-13 18:55:00,
2013-05-13 12:00:00,63.9,41.0,28.14,NNE,22,0.0,0.0,43,0.00,,---,0.00,VWS V14.01,2013-05-13 19:00:00,
2013-05-13 12:05:00,64.0,38.6,28.14,NE,45,1.3,2.2,39,0.00,,---,0.00,VWS V14.01,2013-05-13 19:05:00,
2013-05-13 12:10:00,64.4,40.2,28.14,North,0,0.0,0.0,41,0.00,,---,0.00,VWS V14.01,2013-05-13 19:10:00,
2013-05-13 12:15:00,64.8,39.9,28.14,NE,45,0.0,0.0,40,0.00,,---,0.00,VWS V14.01,2013-05-13 19:15:00,
2013-05-13 12:20:00,64.8,39.9,28.14,NNE,22,2.0,3.4,40,0.00,,---,0.00,VWS V14.01,2013-05-13 19:20:00,
2013-05-13 12:25:00,64.0,39.2,28.14,NNW,338,2.2,2.5,40,0.00,,---,0.00,VWS V14.01,2013-05-13 19:25:00,
2013-05-13 12:30:00,63.5,38.8,28.11,NNW,338,0.0,2.0,40,0.00,,---,0.00,VWS V14.01,2013-05-13 19:30:00,
2013-05-13 12:35:00,63.3,39.2,28.11,NE,45,0.0,0.0,41,0.00,,---,0.00,VWS V14.01,2013-05-13 19:35:00,
2013-05-13 12:40:00,63.9,40.3,28.11,NNE,22,0.0,2.0,42,0.00,,---,0.00,VWS V14.01,2013-05-13 19:40:00,
2013-05-13 12:45:00,63.7,40.2,28.11,NE,45,0.0,0.0,42,0.00,,---,0.00,VWS V14.01,2013-05-13 19:45:00,
2013-05-13 12:50:00,63.5,40.0,28.11,NE,45,0.0,0.0,42,0.00,,---,0.00,VWS V14.01,2013-05-13 19:50:00,
2013-05-13 12:56:00,63.5,39.4,28.11,NE,45,0.0,0.0,41,0.00,,---,0.00,VWS V14.01,2013-05-13 19:56:00,
2013-05-13 13:01:00,63.7,39.6,28.11,NE,45,0.0,0.0,41,0.00,,---,0.00,VWS V14.01,2013-05-13 20:01:00,
2013-05-13 13:06:00,63.9,39.7,28.11,NE,45,0.0,0.0,41,0.00,,---,0.00,VWS V14.01,2013-05-13 20:06:00,
2013-05-13 13:11:00,64.0,41.1,28.11,ENE,68,0.0,0.0,43,0.00,,---,0.00,VWS V14.01,2013-05-13 20:11:00,
2013-05-13 13:16:00,64.9,41.3,28.11,ENE,68,0.0,0.0,42,0.00,,---,0.00,VWS V14.01,2013-05-13 20:16:00,
2013-05-13 13:21:00,65.1,40.9,28.11,NE,45,0.0,0.0,41,0.00,,---,0.00,VWS V14.01,2013-05-13 20:21:00,
2013-05-13 13:26:00,65.1,40.9,28.11,NE,45,0.0,0.0,41,0.00,,---,0.00,VWS V14.01,2013-05-13 20:26:00,
2013-05-13 13:31:00,65.1,40.2,28.11,NE,45,1.3,1.3,40,0.00,,---,0.00,VWS V14.01,2013-05-13 20:31:00,
2013-05-13 13:36:00,64.9,39.4,28.11,ESE,112,0.9,1.1,39,0.00,,---,0.00,VWS V14.01,2013-05-13 20:36:00,
2013-05-13 13:41:00,64.6,41.0,28.11,ESE,112,0.0,0.0,42,0.00,,---,0.00,VWS V14.01,2013-05-13 20:41:00,
2013-05-13 13:46:00,64.4,38.9,28.11,East,90,0.9,1.1,39,0.00,,---,0.00,VWS V14.01,2013-05-13 20:46:00,
2013-05-13 13:51:00,65.3,39.7,28.11,ESE,112,2.5,3.1,39,0.00,,---,0.00,VWS V14.01,2013-05-13 20:51:00,
2013-05-13 13:56:00,66.2,41.2,28.11,WSW,248,0.0,0.0,40,0.00,,---,0.00,VWS V14.01,2013-05-13 20:56:00,
2013-05-13 14:01:00,66.6,40.9,28.08,NE,45,0.9,0.9,39,0.00,,---,0.00,VWS V14.01,2013-05-13 21:01:00,
2013-05-13 14:06:00,67.1,40.0,28.08,ESE,112,2.7,2.7,37,0.00,,---,0.00,VWS V14.01,2013-05-13 21:06:00,
2013-05-13 14:11:00,67.6,40.5,28.08,East,90,0.0,0.0,37,0.00,,---,0.00,VWS V14.01,2013-05-13 21:11:00,
2013-05-13 14:16:00,67.1,40.0,28.08,ESE,112,1.1,2.2,37,0.00,,---,0.00,VWS V14.01,2013-05-13 21:16:00,
2013-05-13 14:21:00,67.3,38.7,28.08,East,90,0.0,1.6,35,0.00,,---,0.00,VWS V14.01,2013-05-13 21:21:00,
2013-05-13 14:26:00,66.9,39.1,28.08,NNE,22,0.9,1.3,36,0.00,,---,0.00,VWS V14.01,2013-05-13 21:26:00,
2013-05-13 14:31:00,67.3,39.4,28.08,West,270,0.0,0.0,36,0.00,,---,0.00,VWS V14.01,2013-05-13 21:31:00,
2013-05-13 14:36:00,68.2,40.2,28.08,East,90,0.0,0.0,36,0.00,,---,0.00,VWS V14.01,2013-05-13 21:36:00,
2013-05-13 14:41:00,67.5,38.9,28.08,North,0,1.1,1.1,35,0.00,,---,0.00,VWS V14.01,2013-05-13 21:41:00,
2013-05-13 14:46:00,66.9,38.4,28.05,North,0,0.0,0.0,35,0.00,,---,0.00,VWS V14.01,2013-05-13 21:46:00,
2013-05-13 14:51:00,66.7,39.0,28.05,North,0,1.1,1.1,36,0.00,,---,0.00,VWS V14.01,2013-05-13 21:51:00,
2013-05-13 14:56:00,66.0,39.0,28.05,NNE,22,2.9,2.9,37,0.00,,---,0.00,VWS V14.01,2013-05-13 21:56:00,
2013-05-13 15:01:00,66.2,39.2,28.05,NE,45,3.6,3.8,37,0.00,,---,0.00,VWS V14.01,2013-05-13 22:01:00,
2013-05-13 15:06:00,65.1,45.0,28.05,North,0,1.1,1.6,48,0.00,,---,0.00,VWS V14.01,2013-05-13 22:06:00,
2013-05-13 15:11:00,64.4,44.8,28.05,West,270,0.0,2.5,49,0.00,,---,0.00,VWS V14.01,2013-05-13 22:11:00,
2013-05-13 15:16:00,63.1,42.0,28.08,WNW,292,1.3,3.8,46,0.00,,---,0.00,VWS V14.01,2013-05-13 22:16:00,
2013-05-13 15:21:00,61.2,40.8,28.08,NW,315,0.0,2.7,47,0.00,,---,0.00,VWS V14.01,2013-05-13 22:21:00,
2013-05-13 15:26:00,61.2,40.8,28.08,NW,315,0.0,1.6,47,0.00,,---,0.00,VWS V14.01,2013-05-13 22:26:00,
2013-05-13 15:31:00,60.3,41.0,28.11,ENE,68,2.7,2.7,49,0.00,,---,0.00,VWS V14.01,2013-05-13 22:31:00,
2013-05-13 15:36:00,59.2,41.1,28.11,NNE,22,3.1,3.4,51,0.00,,---,0.00,VWS V14.01,2013-05-13 22:36:00,
2013-05-13 15:41:00,57.7,42.6,28.11,West,270,0.0,0.0,57,0.00,,---,0.00,VWS V14.01,2013-05-13 22:41:00,
2013-05-13 15:46:00,57.6,42.9,28.11,NW,315,0.0,0.0,58,0.00,,---,0.00,VWS V14.01,2013-05-13 22:46:00,
2013-05-13 15:51:00,57.0,43.7,28.11,NNE,22,0.0,0.0,61,0.00,,---,0.00,VWS V14.01,2013-05-13 22:51:00,
2013-05-13 15:56:00,56.5,45.7,28.11,South,180,0.0,3.1,67,0.00,,---,0.00,VWS V14.01,2013-05-13 22:56:00,
2013-05-13 16:01:00,57.2,45.6,28.11,NNW,338,0.0,0.0,65,0.04,,---,0.04,VWS V14.01,2013-05-13 23:01:00,
2013-05-13 16:06:00,57.2,46.0,28.11,SSW,202,0.9,2.5,66,0.04,,---,0.04,VWS V14.01,2013-05-13 23:06:00,
2013-05-13 16:11:00,57.0,45.8,28.11,WSW,248,0.0,0.0,66,0.04,,---,0.04,VWS V14.01,2013-05-13 23:11:00,
2013-05-13 16:16:00,57.0,45.8,28.11,WSW,248,0.0,0.0,66,0.04,,---,0.04,VWS V14.01,2013-05-13 23:16:00,
2013-05-13 16:22:00,57.0,47.0,28.11,SSW,202,1.6,2.2,69,0.04,,---,0.04,VWS V14.01,2013-05-13 23:22:00,
2013-05-13 16:27:00,57.2,47.1,28.11,WSW,248,0.0,0.0,69,0.04,,---,0.04,VWS V14.01,2013-05-13 23:27:00,
2013-05-13 16:32:00,57.4,47.7,28.11,SW,225,0.0,0.0,70,0.04,,---,0.04,VWS V14.01,2013-05-13 23:32:00,
2013-05-13 16:37:00,57.6,48.6,28.11,WSW,248,2.5,2.7,72,0.04,,---,0.04,VWS V14.01,2013-05-13 23:37:00,
2013-05-13 16:42:00,57.6,48.6,28.11,WSW,248,2.0,2.0,72,0.04,,---,0.04,VWS V14.01,2013-05-13 23:42:00,
2013-05-13 16:47:00,57.9,49.3,28.11,WSW,248,2.0,2.2,73,0.04,,---,0.04,VWS V14.01,2013-05-13 23:47:00,
2013-05-13 16:52:00,57.6,48.2,28.11,WSW,248,0.0,0.0,71,0.04,,---,0.04,VWS V14.01,2013-05-13 23:52:00,
2013-05-13 16:57:00,57.4,48.1,28.11,NNW,338,0.0,0.0,71,0.04,,---,0.04,VWS V14.01,2013-05-13 23:57:00,
2013-05-13 17:02:00,57.2,47.9,28.11,West,270,0.0,0.0,71,0.00,,---,0.04,VWS V14.01,2013-05-14 00:02:00,
2013-05-13 17:07:00,56.5,47.9,28.11,West,270,1.3,1.3,73,0.00,,---,0.04,VWS V14.01,2013-05-14 00:07:00,
2013-05-13 17:12:00,56.3,47.8,28.11,SW,225,0.0,0.0,73,0.00,,---,0.04,VWS V14.01,2013-05-14 00:12:00,
2013-05-13 17:17:00,56.7,48.5,28.11,WSW,248,0.0,0.0,74,0.00,,---,0.04,VWS V14.01,2013-05-14 00:17:00,
2013-05-13 17:22:00,56.7,48.5,28.11,WSW,248,1.1,1.1,74,0.00,,---,0.04,VWS V14.01,2013-05-14 00:22:00,
2013-05-13 17:27:00,56.1,48.0,28.11,SW,225,3.1,3.1,74,0.00,,---,0.04,VWS V14.01,2013-05-14 00:27:00,
2013-05-13 17:32:00,55.0,45.5,28.11,SSW,202,1.6,1.6,70,0.00,,---,0.04,VWS V14.01,2013-05-14 00:32:00,
2013-05-13 17:37:00,54.5,45.7,28.11,WSW,248,3.1,3.1,72,0.00,,---,0.04,VWS V14.01,2013-05-14 00:37:00,
2013-05-13 17:42:00,53.8,44.6,28.11,WNW,292,0.0,0.0,71,0.00,,---,0.04,VWS V14.01,2013-05-14 00:42:00,
2013-05-13 17:47:00,53.4,45.0,28.11,WSW,248,0.0,0.0,73,0.00,,---,0.04,VWS V14.01,2013-05-14 00:47:00,
2013-05-13 17:52:00,53.4,45.7,28.11,SSW,202,0.0,0.0,75,0.00,,---,0.04,VWS V14.01,2013-05-14 00:52:00,
2013-05-13 17:57:00,53.4,45.7,28.11,SW,225,2.0,2.0,75,0.00,,---,0.04,VWS V14.01,2013-05-14 00:57:00,
2013-05-13 18:02:00,53.1,46.4,28.11,WSW,248,1.1,1.6,78,0.00,,---,0.04,VWS V14.01,2013-05-14 01:02:00,
2013-05-13 18:07:00,52.9,46.2,28.11,SW,225,0.0,0.0,78,0.00,,---,0.04,VWS V14.01,2013-05-14 01:07:00,
2013-05-13 18:12:00,52.5,45.9,28.11,NNE,22,0.0,0.0,78,0.00,,---,0.04,VWS V14.01,2013-05-14 01:12:00,
2013-05-13 18:17:00,52.3,45.7,28.11,NNW,338,0.0,0.0,78,0.00,,---,0.04,VWS V14.01,2013-05-14 01:17:00,
2013-05-13 18:22:00,52.3,46.4,28.11,SW,225,0.0,0.0,80,0.00,,---,0.04,VWS V14.01,2013-05-14 01:22:00,
2013-05-13 18:27:00,52.2,46.5,28.11,SW,225,0.0,1.3,81,0.00,,---,0.04,VWS V14.01,2013-05-14 01:27:00,
2013-05-13 18:32:00,51.8,46.2,28.14,WNW,292,0.0,1.3,81,0.00,,---,0.04,VWS V14.01,2013-05-14 01:32:00,
2013-05-13 18:37:00,51.4,46.1,28.14,SE,135,0.0,1.1,82,0.04,,---,0.08,VWS V14.01,2013-05-14 01:37:00,
2013-05-13 18:42:00,50.9,46.2,28.14,SW,225,2.5,3.8,84,0.04,,---,0.08,VWS V14.01,2013-05-14 01:42:00,
2013-05-13 18:47:00,50.4,45.4,28.14,WSW,248,1.1,2.5,83,0.04,,---,0.08,VWS V14.01,2013-05-14 01:47:00,
2013-05-13 18:52:00,49.6,44.7,28.14,West,270,1.3,2.7,83,0.04,,---,0.08,VWS V14.01,2013-05-14 01:52:00,
2013-05-13 18:57:00,49.3,44.3,28.14,WSW,248,0.0,1.1,83,0.04,,---,0.08,VWS V14.01,2013-05-14 01:57:00,
2013-05-13 19:02:00,49.1,43.8,28.17,SW,225,0.0,0.0,82,0.04,,---,0.08,VWS V14.01,2013-05-14 02:02:00,
2013-05-13 19:07:00,48.9,44.0,28.17,WSW,248,0.0,0.0,83,0.04,,---,0.08,VWS V14.01,2013-05-14 02:07:00,
2013-05-13 19:12:00,48.7,44.4,28.17,WSW,248,0.9,2.9,85,0.09,,---,0.13,VWS V14.01,2013-05-14 02:12:00,
2013-05-13 19:17:00,48.7,44.4,28.17,SSE,158,1.6,2.5,85,0.09,,---,0.13,VWS V14.01,2013-05-14 02:17:00,
2013-05-13 19:23:00,48.4,43.2,28.17,North,0,1.3,4.0,82,0.09,,---,0.13,VWS V14.01,2013-05-14 02:23:00,
2013-05-13 19:28:00,48.0,42.8,28.17,ENE,68,0.0,1.6,82,0.09,,---,0.13,VWS V14.01,2013-05-14 02:28:00,
2013-05-13 19:33:00,47.7,42.4,28.17,WSW,248,2.0,2.2,82,0.09,,---,0.13,VWS V14.01,2013-05-14 02:33:00,
2013-05-13 19:38:00,47.3,41.1,28.17,ESE,112,2.7,2.7,79,0.05,,---,0.13,VWS V14.01,2013-05-14 02:38:00,
2013-05-13 19:43:00,46.8,40.9,28.17,WSW,248,1.1,1.1,80,0.05,,---,0.13,VWS V14.01,2013-05-14 02:43:00,
2013-05-13 19:48:00,46.2,41.0,28.20,SSE,158,2.5,2.5,82,0.05,,---,0.13,VWS V14.01,2013-05-14 02:48:00,
2013-05-13 19:53:00,46.0,41.2,28.20,SE,135,2.9,2.9,83,0.05,,---,0.13,VWS V14.01,2013-05-14 02:53:00,
2013-05-13 19:58:00,46.0,41.5,28.20,East,90,1.6,1.6,84,0.05,,---,0.13,VWS V14.01,2013-05-14 02:58:00,
2013-05-13 20:03:00,45.9,40.0,28.20,SW,225,1.3,1.3,80,0.05,,---,0.13,VWS V14.01,2013-05-14 03:03:00,
2013-05-13 20:08:00,45.1,40.3,28.20,NNE,22,1.3,2.0,83,0.05,,---,0.13,VWS V14.01,2013-05-14 03:08:00,
2013-05-13 20:13:00,44.6,40.4,28.20,South,180,3.4,3.4,85,0.05,,---,0.13,VWS V14.01,2013-05-14 03:13:00,
2013-05-13 20:18:00,44.4,40.2,28.17,SE,135,3.8,3.8,85,0.00,,---,0.13,VWS V14.01,2013-05-14 03:18:00,
2013-05-13 20:23:00,44.6,39.8,28.17,ESE,112,2.0,2.0,83,0.00,,---,0.13,VWS V14.01,2013-05-14 03:23:00,
2013-05-13 20:28:00,44.2,38.8,28.17,NNW,338,1.3,1.6,81,0.00,,---,0.13,VWS V14.01,2013-05-14 03:28:00,
2013-05-13 20:33:00,43.7,38.6,28.20,SSW,202,2.0,2.5,82,0.00,,---,0.13,VWS V14.01,2013-05-14 03:33:00,
2013-05-13 20:38:00,43.5,38.4,28.20,SW,225,1.1,1.1,82,0.00,,---,0.13,VWS V14.01,2013-05-14 03:38:00,
2013-05-13 20:43:00,43.3,37.6,28.20,ENE,68,2.0,2.0,80,0.00,,---,0.13,VWS V14.01,2013-05-14 03:43:00,
2013-05-13 20:48:00,42.8,38.0,28.20,SSW,202,1.3,3.4,83,0.00,,---,0.13,VWS V14.01,2013-05-14 03:48:00,
2013-05-13 20:53:00,43.2,36.8,28.20,WSW,248,2.7,2.7,78,0.00,,---,0.13,VWS V14.01,2013-05-14 03:53:00,
2013-05-13 20:58:00,42.6,37.5,28.20,SW,225,0.0,0.0,82,0.00,,---,0.13,VWS V14.01,2013-05-14 03:58:00,
2013-05-13 21:01:00,42.3,37.2,28.20,WSW,248,3.1,3.1,82,0.00,,---,0.13,VWS V14.01,2013-05-14 04:01:00,
2013-05-13 21:06:00,41.7,37.2,28.20,WSW,248,2.7,3.1,84,0.00,,---,0.13,VWS V14.01,2013-05-14 04:06:00,
2013-05-13 21:11:00,41.5,37.1,28.20,SSW,202,2.0,2.0,84,0.00,,---,0.13,VWS V14.01,2013-05-14 04:11:00,
2013-05-13 21:16:00,41.2,37.0,28.20,WSW,248,0.0,1.6,85,0.00,,---,0.13,VWS V14.01,2013-05-14 04:16:00,
2013-05-13 21:21:00,40.8,37.0,28.20,WSW,248,0.0,1.1,86,0.00,,---,0.13,VWS V14.01,2013-05-14 04:21:00,
2013-05-13 21:27:00,40.8,37.3,28.20,SSW,202,2.5,3.1,87,0.00,,---,0.13,VWS V14.01,2013-05-14 04:27:00,
2013-05-13 21:32:00,40.6,37.1,28.20,West,270,0.0,2.2,87,0.00,,---,0.13,VWS V14.01,2013-05-14 04:32:00,
2013-05-13 21:37:00,40.6,37.7,28.20,West,270,2.9,2.9,89,0.00,,---,0.13,VWS V14.01,2013-05-14 04:37:00,
2013-05-13 21:42:00,40.6,37.9,28.20,SSW,202,2.5,3.8,90,0.00,,---,0.13,VWS V14.01,2013-05-14 04:42:00,
2013-05-13 21:47:00,40.6,38.2,28.20,WSW,248,3.4,3.8,91,0.00,,---,0.13,VWS V14.01,2013-05-14 04:47:00,
2013-05-13 21:52:00,40.5,38.0,28.20,South,180,0.0,2.9,91,0.00,,---,0.13,VWS V14.01,2013-05-14 04:52:00,
2013-05-13 21:57:00,40.5,38.0,28.20,WSW,248,1.1,2.7,91,0.00,,---,0.13,VWS V14.01,2013-05-14 04:57:00,
2013-05-13 22:02:00,40.5,38.0,28.20,SW,225,0.0,0.0,91,0.00,,---,0.13,VWS V14.01,2013-05-14 05:02:00,
2013-05-13 22:07:00,40.3,37.9,28.20,WSW,248,0.0,1.1,91,0.00,,---,0.13,VWS V14.01,2013-05-14 05:07:00,
2013-05-13 22:12:00,40.3,38.2,28.20,West,270,0.0,1.1,92,0.00,,---,0.13,VWS V14.01,2013-05-14 05:12:00,
2013-05-13 22:17:00,40.3,37.9,28.23,South,180,1.1,2.0,91,0.00,,---,0.13,VWS V14.01,2013-05-14 05:17:00,
2013-05-13 22:22:00,40.5,38.0,28.23,WSW,248,1.6,1.6,91,0.00,,---,0.13,VWS V14.01,2013-05-14 05:22:00,
2013-05-13 22:27:00,40.6,38.2,28.23,SSW,202,0.0,0.0,91,0.00,,---,0.13,VWS V14.01,2013-05-14 05:27:00,
2013-05-13 22:32:00,40.6,38.2,28.23,WSW,248,0.0,0.0,91,0.00,,---,0.13,VWS V14.01,2013-05-14 05:32:00,
2013-05-13 22:37:00,41.0,38.6,28.23,ESE,112,0.0,0.0,91,0.00,,---,0.13,VWS V14.01,2013-05-14 05:37:00,
2013-05-13 22:42:00,41.0,38.6,28.23,SE,135,0.0,0.0,91,0.00,,---,0.13,VWS V14.01,2013-05-14 05:42:00,
2013-05-13 22:47:00,41.0,38.6,28.23,SE,135,0.0,0.0,91,0.00,,---,0.13,VWS V14.01,2013-05-14 05:47:00,
2013-05-13 22:52:00,41.0,38.6,28.23,SE,135,0.0,0.0,91,0.00,,---,0.13,VWS V14.01,2013-05-14 05:52:00,
2013-05-13 22:57:00,41.2,38.8,28.23,West,270,0.0,0.0,91,0.00,,---,0.13,VWS V14.01,2013-05-14 05:57:00,
2013-05-13 23:02:00,41.2,38.5,28.23,West,270,0.0,0.0,90,0.00,,---,0.13,VWS V14.01,2013-05-14 06:02:00,
2013-05-13 23:07:00,41.2,38.8,28.23,WNW,292,0.0,0.0,91,0.00,,---,0.13,VWS V14.01,2013-05-14 06:07:00,
2013-05-13 23:12:00,41.2,38.8,28.23,ESE,112,0.0,0.0,91,0.00,,---,0.13,VWS V14.01,2013-05-14 06:12:00,
2013-05-13 23:17:00,41.0,38.6,28.23,WSW,248,0.0,0.0,91,0.00,,---,0.13,VWS V14.01,2013-05-14 06:17:00,
2013-05-13 23:22:00,40.8,38.4,28.23,WSW,248,0.0,0.0,91,0.00,,---,0.13,VWS V14.01,2013-05-14 06:22:00,
2013-05-13 23:27:00,40.5,37.8,28.23,WSW,248,0.0,0.0,90,0.00,,---,0.13,VWS V14.01,2013-05-14 06:27:00,
2013-05-13 23:32:00,40.3,37.3,28.26,NNW,338,0.0,0.0,89,0.00,,---,0.13,VWS V14.01,2013-05-14 06:32:00,
2013-05-13 23:37:00,40.1,37.4,28.26,NNW,338,0.0,0.0,90,0.00,,---,0.13,VWS V14.01,2013-05-14 06:37:00,
2013-05-13 23:42:00,39.9,37.0,28.26,SSW,202,0.0,0.0,89,0.00,,---,0.13,VWS V14.01,2013-05-14 06:42:00,
2013-05-13 23:47:00,39.7,36.8,28.26,WNW,292,0.0,0.0,89,0.00,,---,0.13,VWS V14.01,2013-05-14 06:47:00,
2013-05-13 23:52:00,39.6,36.6,28.26,NNW,338,0.0,0.0,89,0.00,,---,0.13,VWS V14.01,2013-05-14 06:52:00,
2013-05-13 23:57:00,39.4,36.4,28.26,SSW,202,0.0,0.0,89,0.00,,---,0.13,VWS V14.01,2013-05-14 06:57:00,